When you browse on this site, cookies collect data to enhance your experience and personalize the content and advertising you see.
Visit our Privacy Policy to learn more. By continuing to use the site, you agree to this use of cookies and data.
  • In Germany
  • List of Countries
  • For 7 days
  • Water Temperature
  • Satellite Maps
  • Weather Map
  • Weather Widgets
  • user-avatar
    Login

    Hourly Weather La Rioja

    Today, 23 May, Thursday

    Time Temperature Precipitation Wind Pressure Humidity
    00:00 +7°C° 0 mm 1 mps 722 mmHg 54%
    01:00 +7°C° 0 mm 1 mps 722 mmHg 56%
    02:00 +7°C° 0 mm 1 mps 722 mmHg 57%
    03:00 +7°C° 0 mm 1 mps 721 mmHg 56%
    04:00 +7°C° 0 mm 1 mps 721 mmHg 55%
    05:00 +6°C° 0 mm 1 mps 720 mmHg 54%
    06:00 +7°C° 0 mm 1 mps 720 mmHg 50%
    07:00 +8°C° 0 mm 1 mps 721 mmHg 46%
    08:00 +8°C° 0 mm 0 mps 721 mmHg 42%
    09:00 +12°C° 0 mm 1 mps 721 mmHg 35%
    10:00 +15°C° 0 mm 1 mps 721 mmHg 28%
    11:00 +18°C° 0 mm 2 mps 721 mmHg 20%
    12:00 +19°C° 0 mm 2 mps 720 mmHg 19%
    13:00 +20°C° 0 mm 2 mps 720 mmHg 17%
    14:00 +21°C° 0 mm 2 mps 719 mmHg 15%
    15:00 +21°C° 0 mm 2 mps 719 mmHg 16%
    16:00 +20°C° 0 mm 2 mps 718 mmHg 18%
    17:00 +19°C° 0 mm 2 mps 718 mmHg 19%
    18:00 +17°C° 0 mm 2 mps 718 mmHg 25%
    19:00 +14°C° 0 mm 1 mps 718 mmHg 31%
    20:00 +11°C° 0 mm 1 mps 717 mmHg 37%
    21:00 +11°C° 0 mm 1 mps 717 mmHg 38%
    22:00 +10°C° 0 mm 1 mps 717 mmHg 38%
    23:00 +10°C° 0 mm 1 mps 717 mmHg 39%

    Tomorrow, 24 May, Friday

    Time Temperature Precipitation Wind Pressure Humidity
    00:00 +9°C° 0 mm 1 mps 717 mmHg 40%
    01:00 +9°C° 0 mm 1 mps 716 mmHg 40%
    02:00 +9°C° 0 mm 1 mps 716 mmHg 41%
    03:00 +8°C° 0 mm 1 mps 715 mmHg 41%
    04:00 +8°C° 0 mm 1 mps 715 mmHg 41%
    05:00 +8°C° 0 mm 1 mps 714 mmHg 41%
    06:00 +9°C° 0 mm 1 mps 715 mmHg 38%
    07:00 +10°C° 0 mm 1 mps 715 mmHg 35%
    08:00 +11°C° 0 mm 1 mps 715 mmHg 32%
    09:00 +14°C° 0 mm 1 mps 715 mmHg 27%
    10:00 +17°C° 0 mm 2 mps 715 mmHg 23%
    11:00 +19°C° 0 mm 2 mps 715 mmHg 18%
    12:00 +20°C° 0 mm 2 mps 715 mmHg 18%
    13:00 +21°C° 0 mm 3 mps 714 mmHg 17%
    14:00 +22°C° 0 mm 3 mps 713 mmHg 17%
    15:00 +21°C° 0 mm 2 mps 712 mmHg 20%
    16:00 +20°C° 0 mm 2 mps 712 mmHg 22%
    17:00 +20°C° 0 mm 1 mps 711 mmHg 25%
    18:00 +18°C° 0 mm 2 mps 711 mmHg 28%
    19:00 +16°C° 0 mm 2 mps 711 mmHg 30%
    20:00 +14°C° 0 mm 3 mps 712 mmHg 32%
    21:00 +15°C° 0 mm 2 mps 712 mmHg 36%
    22:00 +14°C° 0 mm 2 mps 712 mmHg 40%
    23:00 +14°C° 0 mm 2 mps 712 mmHg 43%

    Day after tomorrow, 25 May, Saturday

    Time Temperature Precipitation Wind Pressure Humidity
    00:00 +14°C° 0 mm 2 mps 711 mmHg 45%
    01:00 +14°C° 0 mm 2 mps 711 mmHg 47%
    02:00 +13°C° 0 mm 2 mps 711 mmHg 49%
    03:00 +13°C° 0 mm 2 mps 710 mmHg 50%
    04:00 +13°C° 0 mm 2 mps 710 mmHg 52%
    05:00 +12°C° 0 mm 2 mps 709 mmHg 53%
    06:00 +13°C° 0 mm 2 mps 710 mmHg 51%
    07:00 +13°C° 0 mm 2 mps 710 mmHg 49%
    08:00 +14°C° 0 mm 2 mps 710 mmHg 47%
    09:00 +16°C° 0 mm 2 mps 710 mmHg 43%
    10:00 +18°C° 0 mm 2 mps 710 mmHg 39%
    11:00 +20°C° 0 mm 2 mps 710 mmHg 35%
    12:00 +21°C° 0 mm 2 mps 709 mmHg 34%
    13:00 +21°C° 0 mm 3 mps 708 mmHg 33%
    14:00 +22°C° 0 mm 3 mps 707 mmHg 31%
    15:00 +21°C° 0 mm 2 mps 707 mmHg 33%
    16:00 +21°C° 0 mm 2 mps 707 mmHg 36%
    17:00 +21°C° 0 mm 1 mps 707 mmHg 38%
    18:00 +19°C° 0 mm 2 mps 708 mmHg 42%
    19:00 +17°C° 0 mm 2 mps 708 mmHg 46%
    20:00 +16°C° 0 mm 2 mps 708 mmHg 50%
    21:00 +16°C° 0 mm 2 mps 709 mmHg 53%
    22:00 +15°C° 0 mm 2 mps 709 mmHg 56%
    23:00 +15°C° 0 mm 2 mps 710 mmHg 58%

    26 May, Sunday

    Time Temperature Precipitation Wind Pressure Humidity
    00:00 +15°C° 0 mm 2 mps 709 mmHg 61%
    01:00 +15°C° 0 mm 2 mps 709 mmHg 63%
    02:00 +15°C° 0 mm 2 mps 709 mmHg 65%
    03:00 +14°C° 0 mm 2 mps 709 mmHg 66%
    04:00 +14°C° 0 mm 2 mps 709 mmHg 68%
    05:00 +14°C° 0 mm 2 mps 709 mmHg 70%
    06:00 +14°C° 0 mm 2 mps 710 mmHg 68%
    07:00 +15°C° 0 mm 2 mps 710 mmHg 66%
    08:00 +15°C° 0 mm 2 mps 711 mmHg 64%
    09:00 +17°C° 0 mm 2 mps 711 mmHg 58%
    10:00 +19°C° 0 mm 2 mps 711 mmHg 51%
    11:00 +20°C° 0 mm 3 mps 712 mmHg 44%
    12:00 +21°C° 0 mm 3 mps 711 mmHg 42%
    13:00 +21°C° 0 mm 3 mps 711 mmHg 40%
    14:00 +22°C° 0 mm 3 mps 710 mmHg 38%
    15:00 +21°C° 0 mm 3 mps 710 mmHg 40%
    16:00 +20°C° 0 mm 2 mps 710 mmHg 42%
    17:00 +21°C° 0 mm 1 mps 710 mmHg 44%
    18:00 +19°C° 0 mm 1 mps 711 mmHg 49%
    19:00 +18°C° 0 mm 1 mps 711 mmHg 53%
    20:00 +16°C° 0 mm 1 mps 712 mmHg 57%
    21:00 +14°C° 0 mm 0 mps 712 mmHg 59%
    22:00 +14°C° 0 mm 0 mps 712 mmHg 61%
    23:00 +13°C° 0 mm 0 mps 712 mmHg 62%

    27 May, Monday

    Time Temperature Precipitation Wind Pressure Humidity
    00:00 +13°C° 0 mm 0 mps 712 mmHg 64%
    01:00 +13°C° 0 mm 0 mps 712 mmHg 65%
    02:00 +12°C° 0 mm 0 mps 711 mmHg 67%
    03:00 +13°C° 0 mm 1 mps 711 mmHg 67%
    04:00 +13°C° 0 mm 1 mps 711 mmHg 67%
    05:00 +13°C° 0 mm 1 mps 711 mmHg 67%
    06:00 +13°C° 0 mm 1 mps 711 mmHg 65%
    07:00 +14°C° 0 mm 1 mps 711 mmHg 62%
    08:00 +14°C° 0 mm 1 mps 712 mmHg 60%
    09:00 +16°C° 0 mm 1 mps 712 mmHg 55%
    10:00 +18°C° 0 mm 2 mps 712 mmHg 49%
    11:00 +20°C° 0 mm 2 mps 712 mmHg 44%
    12:00 +21°C° 0 mm 2 mps 711 mmHg 43%
    13:00 +21°C° 0 mm 2 mps 710 mmHg 42%
    14:00 +23°C° 0 mm 2 mps 710 mmHg 42%
    15:00 +21°C° 0 mm 2 mps 710 mmHg 46%
    16:00 +21°C° 0 mm 2 mps 710 mmHg 50%
    17:00 +20°C° 0 mm 2 mps 709 mmHg 55%
    18:00 +19°C° 0 mm 1 mps 710 mmHg 63%
    19:00 +18°C° 0 mm 1 mps 710 mmHg 71%
    20:00 +15°C° 0 mm 1 mps 711 mmHg 80%
    21:00 +15°C° 0 mm 1 mps 711 mmHg 81%
    22:00 +15°C° 0 mm 2 mps 711 mmHg 82%
    23:00 +14°C° 0 mm 2 mps 712 mmHg 83%

    28 May, Tuesday

    Time Temperature Precipitation Wind Pressure Humidity
    00:00 +14°C° 0 mm 2 mps 712 mmHg 84%
    01:00 +14°C° 0 mm 2 mps 712 mmHg 85%
    02:00 +13°C° 0 mm 3 mps 712 mmHg 86%
    03:00 +13°C° 0 mm 3 mps 712 mmHg 83%
    04:00 +12°C° 0 mm 3 mps 712 mmHg 81%
    05:00 +12°C° 0 mm 3 mps 713 mmHg 79%
    06:00 +12°C° 0 mm 3 mps 713 mmHg 74%
    07:00 +12°C° 0 mm 3 mps 714 mmHg 70%
    08:00 +12°C° 0 mm 3 mps 714 mmHg 65%
    09:00 +14°C° 0 mm 3 mps 715 mmHg 56%
    10:00 +17°C° 0 mm 3 mps 715 mmHg 48%
    11:00 +19°C° 0 mm 2 mps 715 mmHg 39%
    12:00 +20°C° 0 mm 2 mps 715 mmHg 33%
    13:00 +21°C° 0 mm 2 mps 714 mmHg 27%
    14:00 +21°C° 0 mm 2 mps 714 mmHg 22%
    15:00 +21°C° 0 mm 2 mps 714 mmHg 23%
    16:00 +20°C° 0 mm 2 mps 714 mmHg 24%
    17:00 +20°C° 0 mm 2 mps 714 mmHg 25%
    18:00 +19°C° 0 mm 1 mps 714 mmHg 32%
    19:00 +16°C° 0 mm 1 mps 714 mmHg 38%
    20:00 +14°C° 0 mm 1 mps 715 mmHg 45%
    21:00 +14°C° 0 mm 1 mps 715 mmHg 49%
    22:00 +14°C° 0 mm 1 mps 715 mmHg 53%
    23:00 +13°C° 0 mm 1 mps 715 mmHg 57%
    Show more